Weather History for KMDH - October, 2012

Change the Weather History Date:

Wednesday, October 31, 2012

  Actual Average Record
Temperature  
Mean Temperature 44 °F -  
Max Temperature 55 °F 65 °F 86 °F (1950)
Min Temperature 33 °F 43 °F 20 °F (1923)
Degree Days  
Heating Degree Days 20    
Moisture  
Dew Point 25 °F    
Average Humidity 52    
Maximum Humidity 79    
Minimum Humidity 23    
Precipitation  
Precipitation 0.00 in - - ()
Sea Level Pressure  
Sea Level Pressure 29.95 in    
Wind  
Wind Speed 6 mph (NW)    
Max Wind Speed 15 mph    
Max Gust Speed 22 mph    
Visibility 10 miles    
Events      
Averages and records for this station are not official NWS values.
T = Trace of Precipitation, MM = Missing Value Source: NWS Daily Summary

Daily Weather History Graph

Daily Weather History Graph

Search for Another Location

Airport or City:

Trip Planner

Search our weather history database for the weather conditions in past years. The results will help you decide how hot, cold, wet, or windy it might be!

Date:

Astronomy

Oct. 31, 2012 Rise Set
Actual Time 7:21 AM CDT 5:58 PM CDT
Civil Twilight 6:54 AM CDT 6:25 PM CDT
Nautical Twilight 6:23 AM CDT 6:56 PM CDT
Astronomical Twilight 5:53 AM CDT 7:27 PM CDT
Moon 7:12 PM CDT (10/31) 9:00 AM CDT (10/31)
Length of Visible Light 11h 31m
Length of Day
10h 37m
Full, 97% of the Moon is Illuminated
Oct 31
Full
Nov 6
Last Quarter
Nov 13
New
Nov 20
First Quarter
Nov 28
Full

Hourly Weather History & Observations

Time (CDT) Temp. Windchill Dew Point Humidity Pressure Visibility Wind Dir Wind Speed Gust Speed Precip Events Conditions
12:52 AM 43.0 °F 40.3 °F 28.0 °F 56% 29.91 in 10.0 mi WNW 4.6 mph - N/A   Clear
1:52 AM 41.0 °F 38.0 °F 28.0 °F 60% 29.91 in 10.0 mi WNW 4.6 mph - N/A   Clear
3:52 AM 39.9 °F 36.7 °F 27.0 °F 60% 29.92 in 10.0 mi WNW 4.6 mph - N/A   Clear
4:52 AM 39.0 °F 36.8 °F 28.0 °F 65% 29.92 in 10.0 mi NW 3.5 mph - N/A   Clear
5:52 AM 37.9 °F 35.5 °F 28.0 °F 68% 29.93 in 10.0 mi NW 3.5 mph - N/A   Clear
6:52 AM 37.0 °F 31.6 °F 28.0 °F 70% 29.93 in 10.0 mi WNW 6.9 mph - N/A   Clear
7:52 AM 37.0 °F 33.3 °F 28.0 °F 70% 29.95 in 10.0 mi NW 4.6 mph - N/A   Clear
8:52 AM 42.1 °F 36.6 °F 30.0 °F 62% 29.97 in 10.0 mi NW 9.2 mph - N/A   Clear
9:52 AM 44.1 °F 37.4 °F 28.0 °F 53% 29.97 in 10.0 mi NNW 13.8 mph 18.4 mph N/A   Clear
10:52 AM 48.0 °F - 28.0 °F 46% 29.98 in 10.0 mi NW 12.7 mph - N/A   Clear
11:52 AM 50.0 °F - 26.1 °F 39% 29.98 in 10.0 mi WNW 15.0 mph - N/A   Clear
12:52 PM 53.1 °F - 26.1 °F 35% 29.96 in 10.0 mi NW 11.5 mph - N/A   Clear
1:52 PM 54.0 °F - 21.0 °F 28% 29.95 in 10.0 mi NNW 10.4 mph 20.7 mph N/A   Scattered Clouds
2:52 PM 55.9 °F - 19.9 °F 25% 29.94 in 10.0 mi NW 13.8 mph 19.6 mph N/A   Clear
3:52 PM 55.9 °F - 18.0 °F 23% 29.94 in 10.0 mi NNW 11.5 mph 21.9 mph N/A   Clear
4:52 PM 55.0 °F - 19.0 °F 24% 29.94 in 10.0 mi NNW 9.2 mph - N/A   Clear
5:52 PM 48.9 °F - 21.0 °F 33% 29.94 in 10.0 mi NNW 5.8 mph - N/A   Clear
6:52 PM 45.0 °F - 21.9 °F 40% 29.95 in 10.0 mi Calm Calm - N/A   Clear
7:52 PM 41.0 °F 38.0 °F 25.0 °F 53% 29.96 in 10.0 mi WNW 4.6 mph - N/A   Clear
8:52 PM 39.0 °F 36.8 °F 25.0 °F 57% 29.98 in 10.0 mi West 3.5 mph - N/A   Clear
9:52 PM 36.0 °F - 26.1 °F 67% 29.99 in 10.0 mi Calm Calm - N/A   Clear
10:52 PM 34.0 °F - 28.0 °F 79% 29.99 in 10.0 mi Calm Calm - N/A   Clear
11:52 PM 33.1 °F 30.0 °F 27.0 °F 78% 29.99 in 10.0 mi WSW 3.5 mph - N/A   Clear